Date String (YYYY-MM-DD hh:mm:ss) UTC,Instrument flags,absolute air pressure of the measurement (hPa),sample flow rate (lpm),inlet stack bypass flow (lpm),air temperature of the measurement (°C),ambient temperature measured by the external sensor (°C),aerosol sample conditioner tube jacket temperature (°C),OPC LED temperature (°C),internal box temperature (°C),relative humidity of the measurement (%),span deviation,mass concentration of particles derived from Lorenz-Mie calculation of OPC scattering (μg/m³),mass concentration of particles derived from Lorenz-Mie calculation of OPC scattering (μg/m³),mass concentration of particles derived from Lorenz-Mie calculation of OPC scattering (μg/m³)
DateTimeUTC,F1_M11,P_M11,Q1_M11,Q2_M11,T1_M11,T2_M11,T3_M11,T4_M11,T5_M11,U1_M11,ZSPAN_M11,X2_M11,X0_M11,X1_M11
2023-06-17 09:00:00,SystemResetWarning,0832.1,5.00,000.00,030.4,028.6,000.0,039.0,031.8,23.5,0000.0,0004.34,0007.17,0004.08
2023-06-17 09:01:00,SystemResetWarning,0832.1,5.01,000.00,030.4,028.6,000.0,039.0,031.8,23.3,0000.0,0004.36,0007.25,0004.09
2023-06-17 09:02:00,SystemResetWarning,0832.1,5.00,000.00,030.4,028.6,000.0,039.0,031.9,23.3,0002.5,0004.40,0007.29,0004.13
2023-06-17 09:03:00,SystemResetWarning,0832.2,5.01,000.00,030.4,028.6,000.0,039.0,031.9,23.4,0000.2,0004.40,0007.20,0004.14
2023-06-17 09:04:00,SystemResetWarning,0832.2,5.00,000.00,030.4,028.6,000.0,039.0,031.9,23.4,0001.1,0004.40,0007.11,0004.15
2023-06-17 09:05:00,SystemResetWarning,0832.2,5.00,000.00,030.4,028.6,000.0,039.0,031.9,23.3,0003.6,0004.42,0007.14,0004.17
2023-06-17 09:06:00,SystemResetWarning,0832.2,4.99,000.00,030.4,028.6,000.0,039.0,031.8,23.3,0003.5,0004.45,0007.23,0004.20
2023-06-17 09:07:00,SystemResetWarning,0832.2,4.99,000.00,030.4,028.6,000.0,039.0,031.8,23.2,0003.2,0004.47,0007.19,0004.23
2023-06-17 09:08:00,SystemResetWarning,0832.2,5.00,000.00,030.4,028.6,000.0,039.0,031.9,23.2,0000.0,0004.50,0007.21,0004.25
2023-06-17 09:09:00,SystemResetWarning,0832.2,5.00,000.00,030.4,028.6,000.0,039.0,031.9,23.2,0000.0,0004.51,0007.33,0004.27
2023-06-17 09:10:00,SystemResetWarning,0832.2,5.01,000.00,030.4,028.6,000.0,039.0,031.9,23.1,0000.0,0004.51,0007.01,0004.28
2023-06-17 09:11:00,SystemResetWarning,0832.1,5.01,000.00,030.4,028.6,000.0,039.0,031.9,23.1,0000.0,0004.51,0006.96,0004.29
2023-06-17 09:12:00,SystemResetWarning,0832.1,5.01,000.00,030.4,028.6,000.0,039.0,031.8,23.1,0000.0,0004.52,0007.09,0004.30
2023-06-17 09:13:00,SystemResetWarning,0832.0,4.99,000.00,030.4,028.7,000.0,039.0,031.9,23.0,0000.0,0004.51,0007.08,0004.29
2023-06-17 09:14:00,SystemResetWarning,0832.1,4.99,000.00,030.4,028.7,000.0,039.0,031.9,23.0,0000.0,0004.52,0007.14,0004.29
2023-06-17 09:15:00,SystemResetWarning,0832.1,4.99,000.00,030.4,028.7,000.0,039.0,031.9,23.0,0000.0,0004.54,0007.20,0004.31
2023-06-17 09:16:00,SystemResetWarning,0832.1,5.00,000.00,030.4,028.7,000.0,039.0,031.9,22.9,0000.0,0004.54,0007.16,0004.33
2023-06-17 09:17:00,SystemResetWarning,0832.2,5.00,000.00,030.4,028.7,000.0,039.0,031.9,22.9,0000.0,0004.53,0007.10,0004.34
2023-06-17 09:18:00,SystemResetWarning,0832.2,5.01,000.00,030.4,028.7,000.0,039.0,031.9,23.2,0000.0,0004.52,0007.14,0004.33
2023-06-17 09:19:00,SystemResetWarning,0832.2,5.00,000.00,030.4,028.7,000.0,039.0,031.9,23.5,0000.0,0004.52,0007.23,0004.32
2023-06-17 09:20:00,SystemResetWarning,0832.2,5.00,000.00,030.4,028.7,000.0,039.0,031.9,23.6,0000.0,0004.53,0007.11,0004.32
2023-06-17 09:21:00,SystemResetWarning,0832.2,5.00,000.00,030.4,028.6,000.0,039.0,031.8,23.8,0000.0,0004.51,0007.08,0004.30
2023-06-17 09:22:00,SystemResetWarning,0832.1,5.00,000.00,030.4,028.6,000.0,039.0,031.8,23.9,0000.0,0004.48,0006.99,0004.27
2023-06-17 09:23:00,SystemResetWarning,0832.0,4.99,000.00,030.4,028.6,000.0,039.0,031.8,24.1,0000.0,0004.47,0007.00,0004.25
2023-06-17 09:24:00,SystemResetWarning,0832.0,4.99,000.00,030.3,028.6,000.0,039.0,031.7,24.3,0000.0,0004.45,0007.22,0004.22
2023-06-17 09:25:00,SystemResetWarning,0832.0,5.00,000.00,030.3,028.6,000.0,039.0,031.7,24.7,0000.0,0004.45,0007.30,0004.19
2023-06-17 09:26:00,SystemResetWarning,0832.0,5.01,000.00,030.3,028.5,000.0,039.0,031.7,24.8,0000.0,0004.43,0007.34,0004.14
2023-06-17 09:27:00,SystemResetWarning,0832.0,5.00,000.00,030.3,028.5,000.0,039.0,031.7,24.9,0000.0,0004.41,0007.38,0004.10
2023-06-17 09:28:00,SystemResetWarning,0832.0,5.00,000.00,030.3,028.5,000.0,039.0,031.7,24.9,0000.0,0004.37,0007.67,0004.07
2023-06-17 09:29:00,SystemResetWarning,0832.0,5.00,000.00,030.3,028.5,000.0,039.0,031.7,24.9,0000.0,0004.35,0007.97,0004.04
2023-06-17 09:30:00,SystemResetWarning,0832.0,5.00,000.00,030.2,028.5,000.0,039.0,031.7,24.9,0000.0,0004.33,0007.96,0004.02
2023-06-17 09:31:00,SystemResetWarning,0832.0,5.00,000.00,030.2,028.5,000.0,039.0,031.7,24.9,0000.0,0004.30,0007.83,0003.99
2023-06-17 09:32:00,SystemResetWarning,0832.0,5.00,000.00,030.2,028.5,000.0,039.0,031.7,24.9,0000.0,0004.27,0007.82,0003.96
2023-06-17 09:33:00,SystemResetWarning,0832.0,5.00,000.00,030.2,028.5,000.0,039.0,031.7,24.9,0000.0,0004.27,0007.86,0003.95
2023-06-17 09:34:00,SystemResetWarning,0832.0,5.00,000.00,030.2,028.5,000.0,039.0,031.7,24.7,0000.0,0004.20,0007.74,0003.91
2023-06-17 09:35:00,SystemResetWarning,0832.0,5.00,000.00,030.2,028.5,000.0,038.9,031.7,24.6,0000.0,0004.19,0007.59,0003.88
2023-06-17 09:36:00,SystemResetWarning,0832.0,5.00,000.00,030.3,028.5,000.0,038.9,031.7,24.6,0000.0,0004.15,0007.49,0003.86
2023-06-17 09:37:00,SystemResetWarning,0832.0,5.00,000.00,030.3,028.6,000.0,038.9,031.8,24.6,0000.0,0004.12,0007.40,0003.86
2023-06-17 09:38:00,SystemResetWarning,0831.9,5.00,000.00,030.3,028.6,000.0,038.9,031.7,24.6,0000.0,0004.11,0007.36,0003.85
2023-06-17 09:39:00,SystemResetWarning,0831.9,5.00,000.00,030.3,028.6,000.0,038.9,031.8,24.5,0000.0,0004.11,0007.11,0003.84
2023-06-17 09:40:00,SystemResetWarning,0832.0,5.00,000.00,030.3,028.6,000.0,038.9,031.7,24.5,0000.0,0004.10,0006.25,0003.83
2023-06-17 09:41:00,SystemResetWarning,0832.0,5.00,000.00,030.3,028.6,000.0,038.9,031.8,24.5,0000.0,0004.08,0005.92,0003.82
2023-06-17 09:42:00,SystemResetWarning,0832.0,5.00,000.00,030.3,028.5,000.0,038.9,031.7,24.6,0000.0,0004.08,0006.15,0003.82
2023-06-17 09:43:00,SystemResetWarning,0832.0,5.00,000.00,030.2,028.5,000.0,038.9,031.7,24.6,0000.0,0004.10,0006.13,0003.83
2023-06-17 09:44:00,SystemResetWarning,0831.9,5.00,000.00,030.2,028.5,000.0,038.9,031.7,24.7,0000.0,0004.13,0006.18,0003.85
2023-06-17 09:45:00,SystemResetWarning,0831.9,5.00,000.00,030.2,028.5,000.0,038.9,031.7,24.9,0000.0,0004.14,0006.22,0003.85
2023-06-17 09:46:00,SystemResetWarning,0831.9,5.00,000.00,030.2,028.5,000.0,038.9,031.7,24.9,0000.0,0004.13,0006.15,0003.87
2023-06-17 09:47:00,SystemResetWarning,0831.9,5.00,000.00,030.2,028.5,000.0,038.9,031.7,25.2,0000.0,0004.11,0006.20,0003.88
2023-06-17 09:48:00,SystemResetWarning,0831.9,5.00,000.00,030.2,028.5,000.0,038.9,031.7,25.5,0000.0,0004.12,0006.41,0003.89
2023-06-17 09:49:00,SystemResetWarning,0831.9,5.00,000.00,030.2,028.5,000.0,038.9,031.7,25.5,0000.0,0004.13,0006.42,0003.90
2023-06-17 09:50:00,SystemResetWarning,0831.9,5.00,000.00,030.2,028.5,000.0,038.9,031.7,25.6,0000.0,0004.12,0006.41,0003.90
2023-06-17 09:51:00,SystemResetWarning,0831.8,5.00,000.00,030.2,028.5,000.0,038.9,031.7,25.6,0000.0,0004.13,0006.55,0003.90
2023-06-17 09:52:00,SystemResetWarning,0831.9,5.00,000.00,030.2,028.5,000.0,038.9,031.7,25.7,0000.0,0004.13,0006.78,0003.90
2023-06-17 09:53:00,SystemResetWarning,0832.2,4.99,000.00,030.2,028.5,000.0,038.9,031.7,25.7,0000.0,0004.12,0006.48,0003.89
2023-06-17 09:54:00,SystemResetWarning,0832.0,4.99,000.00,030.2,028.5,000.0,038.9,031.7,25.7,0000.0,0004.09,0006.43,0003.88
2023-06-17 09:55:00,SystemResetWarning,0832.0,4.99,000.00,030.2,028.5,000.0,038.9,031.7,25.6,0000.0,0004.06,0006.41,0003.86
2023-06-17 09:56:00,SystemResetWarning,0831.8,5.01,000.00,030.2,028.5,000.0,038.9,031.7,25.6,0000.0,0004.05,0006.46,0003.85
2023-06-17 09:57:00,SystemResetWarning,0831.8,5.01,000.00,030.2,028.5,000.0,038.9,031.7,25.7,0000.0,0004.07,0006.57,0003.84
2023-06-17 09:58:00,SystemResetWarning,0831.8,4.99,000.00,030.2,028.5,000.0,038.9,031.7,25.7,0000.0,0004.07,0006.46,0003.83
2023-06-17 09:59:00,SystemResetWarning,0831.8,4.99,000.00,030.2,028.5,000.0,038.9,031.7,25.7,0000.0,0004.07,0006.32,0003.83
